Hlavní strana
METAR-TAF:

METAR-TAF

Letiště :

Danville, Illinois, Spojené státy americké

zeměpisná šířka: 40-11-58N, zeměpisná délka: 087-35-44W, výška: 212 m

Aktuální stav počasí

Zpráva byla vytvořena před 15 minutami, v 17:35 UTC
Bezvětří
Teplota 0°C
Vlhkost vzduchu 86%
Tlak 1021 hPa
Viditelnost: 4.0 km
Zataženo ve výšce 1100 ft
kouřmo

METAR: KDNV 181735Z AUTO 00000KT 2 1/2SM BR OVC011 00/M02 A3015 RMK AO2 T10011019

Čas: 11:50 (17:50 UTC)


TAF: chybějící

Stav a předpovědi počasí z více než 4 000 letišť (zprávy METAR a TAF).

Červené a žluté tečky na mapě představují dostupné meteorologické stanice.

Když kurzor umístíte na tečku, zobrazí se název stanice.

Pak kliknutím zobrazíte stav a předpověď počasí.

Chcete-li změnit mapu, kliknutím na zelené tlačítko se znaménkem +mapu přiblížíte, kliknutím na zelené tlačítko se znaménkem – mapu oddálíte a kliknutím na zelené šipky přejdete na sousední mapy.


METAR-TAF: